sat.trackr.live / text

‹ back to catalog

STARLINK-36047

NORAD 66795 · 2025-278E

PAYLOAD ACTIVE UNKNOWN

§ Identity

Operator
Country
US
Launch date
2025-12-01
Launch site
AFETR
Launch vehicle
Mass (kg)
RCS (m²)

Purposes: comms

External: N2YO · Heavens-Above · Gunter

§ Orbital elements

Epoch: 2026-09-20T21:44:33.451872Z

Period
94.27 min
Inclination
43.0055°
Eccentricity
0.0001666
Mean motion
15.27584738 rev/d
Perigee alt
481.9 km
Apogee alt
484.2 km
Semi-major
6,861.2 km
B*
4.9356e-4
RAAN
92.0034°
Arg perigee
279.2076°
Mean anomaly
80.8588°
Rev number
4,506

§ Raw data

STARLINK-360471 66795U 25278E   26263.90594273  .00013346  00000+0  49356-3 0  99912 66795  43.0055  92.0034 0001666 279.2076  80.8588 15.27584738 45064

JSON: /api/v1/satellites/66795 · /tle

For live sub-satellite position, see the globe view (requires WebGL).

§ Visibility from observer

Set your observer location to see the next 7 days of passes ≥ 10°. The values pass through the URL so the page stays shareable.

No JS? Fill the form by hand. The geolocation button needs JavaScript.